Regional Weather Roundup
Issued by NWS

Home | Current Version | Previous Version | Text Only | Print | Product List | Glossary On
Versions: 1 2 3 4 5 6 7 8 9 10 11 12 13 14 15 16 17 18 19 20 21 22 23 24 25 26 27 28 29 30 31 32 33 34 35 36 37 38 39 40 41 42 43 44 45 46 47 48 49 50
000
ASHW40 PHFO 192230
RWRHI

WEATHER ROUNDUP FOR HAWAII
NATIONAL WEATHER SERVICE HONOLULU HI
1200 PM HST SAT APR 19 2014

THIS IS AN AUTOMATED REPORT THAT HAS NOT BEEN QUALITY CONTROLLED.

NOTE..."FAIR" INDICATES FEW OR NO CLOUDS BELOW 12,000 FEET WITH NO
SIGNIFICANT WEATHER AND/OR OBSTRUCTIONS TO VISIBILITY.

* - THESE SITES REPORT LIMITED FIELDS

HIZ001>004-192300-
KAUAI-NIIHAU-

CITY           SKY/WX    TMP DP  RH WIND       PRES   REMARKS
LIHUE APT      PTSUNNY   79  68  69 NE23      30.15F
PORT ALLEN*      N/A     82 N/A N/A E17G25      N/A
POIPU*           N/A     82 N/A N/A NE12G23     N/A
PRINCEVILLE*   NOT AVBL
KOKOLE POINT*  NOT AVBL
MOLOAA DAIRY*  NOT AVBL
WAIMEA HTS*    NOT AVBL
PUU OPAE*      NOT AVBL
PUU LUA*       NOT AVBL
MAKAHA RIDGE*    N/A     73  63  68 NW3         N/A
$$

HIZ005>011-192300-
OAHU-

CITY           SKY/WX    TMP DP  RH WIND       PRES   REMARKS
HONOLULU       PTSUNNY   84  61  45 NE17G29   30.09S
KALAELOA       CLOUDY    85  62  46 E8G21     30.10S
KANEOHE MCB    MOSUNNY   79  64  59 NE13G21   30.12F
WHEELER FIELD  FAIR      79  63  58 E16G24    30.11S
BELLOWS*       NOT AVBL
KAHUKU*          N/A    N/A N/A N/A NE9G20      N/A
WHEELER*       NOT AVBL
WAIANAE HARBOR NOT AVBL
DILLINGHAM*      N/A     63  48  59 NE9G18      N/A
KAHUKU TRN*      N/A     68  59  73 E13G24      N/A
KAWAILOA*      NOT AVBL
KII*             N/A     79  66  65 E16G22      N/A
MAKUA RANGE*     N/A     82  68  61 NE12G28     N/A
OAHU FOREST NW NOT AVBL
SCHOFIELD BRK*   N/A     79  63  57 MISG        N/A
SCHOFIELD S*     N/A     75 N/A N/A CALM        N/A
WAIANAE VLY*   NOT AVBL
KUAOKALA*      NOT AVBL
HONOULIUULI*   NOT AVBL
MOKUOLOE IS*     N/A    N/A N/A N/A MISG        N/A
PALEHUA*       NOT AVBL
WAIAWA PHB*    NOT AVBL
$$

HIZ012>013-192300-
MOLOKAI-

CITY           SKY/WX    TMP DP  RH WIND       PRES   REMARKS
MOLOKAI AIRPT  PTSUNNY   75  69  81 NE14G28   30.11F
KALAUPAPA      NOT AVBL
MAKAPULAPAI*   NOT AVBL
MOLOKAI 1*     NOT AVBL
PUU ALII*        N/A     57  56  98 E3G13       N/A
$$

HIZ016-192300-
KAHOOLAWE-

CITY           SKY/WX    TMP DP  RH WIND       PRES   REMARKS
KAHOOLAWE*     NOT AVBL
HAKIOAWA*        N/A     73  67  81 MISG      30.19
HONOKANAIA*      N/A     80  64  58 NE18G33   30.08F
KANELOA*       NOT AVBL
KEALIALALO*      N/A    N/A N/A N/A E20G35    30.38
LUA MAKIKA*    NOT AVBL
$$

HIZ014>015-192300-
LANAI-

CITY           SKY/WX    TMP DP  RH WIND       PRES   REMARKS
LANAI CITY     PTSUNNY   76  64  66 NE18      30.13F
LANAI 1*       NOT AVBL
$$

HIZ017>028-192300-
MAUI-

CITY           SKY/WX    TMP DP  RH WIND       PRES   REMARKS
KAHULUI        PTSUNNY   79  65  62 NE15G23   30.09F
KAPALUA-W MAUI PTSUNNY   77  66  69 NE13G24   30.11
HANA AIRPORT   NOT AVBL
HANA*            N/A     77 N/A N/A E13G18      N/A
HALEAKALA SUMM   N/A     52  25  35 E29G46      N/A
MAALAEA BAY*   NOT AVBL
HALEAKALA*     NOT AVBL
KAUPO GAP*     NOT AVBL
KULA 1*          N/A     61  54  78 NW5G13      N/A
$$

HIZ023>026-192300-
BIG ISLAND OF HAWAII COAST AND LOWER SLOPES-

CITY           SKY/WX    TMP DP  RH WIND       PRES   REMARKS
KAILUA KONA    PTSUNNY   84  67  56 S13       30.03F
HILO           PTSUNNY   75  71  87 NE9       30.10F
HONOKAA*       NOT AVBL
KAWAIHAE MWT*    N/A     82 N/A N/A W13G22      N/A
KAWAIHAE*        N/A     79 N/A N/A NW13        N/A
SOUTH POINT*     N/A     73 N/A N/A NE17G25     N/A
UPOLU AIRPORT*   N/A    N/A N/A N/A NE22G30     N/A
KAMUELA*       LGT RAIN  66  63  88 NE16      30.15F
HAKALAU*         N/A     63  57  82 E7          N/A
KALOKO-HONOKO*   N/A     82  68  61 S9G15     30.03F
PALI 2*          N/A     72  61  68 NE18G26     N/A
KEALAKOMO*       N/A     81  64  57 E15G23      N/A
KAUPULEHU*     NOT AVBL
KAPAPALA*        N/A     76  62  60 E12G23      N/A
LOWER KAHUKU*  NOT AVBL
PUHE CS*       NOT AVBL
PUHO CS*         N/A     82  64  54 SW3G9       N/A
PTA KEAMUKU*     N/A     68  61  77 NE14G23     N/A
WAIKOLOA*      NOT AVBL
$$

HIZ027>028-192300-
BIG ISLAND OF HAWAII INTERIOR AND SUMMMITS-

CITY           SKY/WX    TMP DP  RH WIND       PRES   REMARKS
BRADSHAW FIELD PTSUNNY   64  54  68 W8G20     30.35F
MK VISITOR CEN NOT AVBL
MAUNA KEA*       N/A     45 -13   8 SE21        N/A
MAUNA LOA*       N/A     57  -9   6 MISG        N/A
MAUNA LOA 1*   NOT AVBL
PTA KIPUKA*      N/A     66  55  68 N9G16       N/A
PTA RANGE 17*    N/A     68  55  64 NW12G20     N/A
PTA WEST*        N/A     72  61  68 NW13G18     N/A
NENE CABIN*    NOT AVBL
AHUMOA*        NOT AVBL
PTA PORTABLE*  NOT AVBL
PUU MALI*      NOT AVBL
$$

HIC003-192300-
NORTHWEST ISLANDS-

CITY           SKY/WX    TMP DP  RH WIND       PRES   REMARKS
MIDWAY ISLAND  PTSUNNY   75  70  83 SE12      30.24R
MIDWAY NOS*    NOT AVBL
FRENCH FRIGATE NOT AVBL
$$

PHZ110>124-180-192300-
BUOY REPORTS

STATION/POSITION TIME  TEMP    WIND        PRES    WAVE   SWELL
                       AIR SEA DIR/SP/G            HT/PER HT/DIR
                 (UTC) (F)     (DEG/KT/KT) (MB)    (FT/S) (FT/D)
BUOY 51001       NOT AVBL
BUOY 51101       2200   72 74   70/ 16/ 19 1021.5F   7/12   5/300
BUOY 51100       2200   73 73   60/ 14/ 16 1021.3F
BUOY 51003       2200   75 78   50/ 12/ 16 1018.0F   9/ 7   8
BUOY 51004       2200   77 78   60/ 16/ 21 1015.1F  10/10   8
BARBERS PT BUOY  NOT AVBL
WAIMEA BAY BUOY  2200      75                N/A     5/14   2/360
KAILUA BAY BUOY  2200      76                N/A     7/ 7   2/ 20
LANAI BUOY       2200      78                N/A     3/13   2/190
BARBERS PT 2     2200      76                N/A     4/11   2/170
PAUWELA MAUI     NOT AVBL
HILO             2200      78                N/A     7/10   2/ 80
KANEOHE BAY BUOY 2200      75                N/A     5/ 8   2/ 10
HANALEI KAUAI    2200      77                N/A     6/ 7   2/320
KAHULUI HARBOR   2200   75 76   50/ 14/ 19 1019.1F
HONOLULU HARBOR  2200   80      40/  9/ 16 1019.1S
KILO NALU        NOT AVBL
HILO HARBOR      2200   72 76  340/  4/  4 1018.8F
MOKUOLOE         2200   76 76   50/ 14/ 18 1020.0F
NAWILIWILI       2200      79                N/A
WHOTS BUOY       NOT AVBL
BUOY 51028       NOT AVBL
$$

......................KEY........................................
  SKY/WX - SKY CONDITIONS/PRESENT WEATHER
  TMP    - TEMPERATURE IN FAHRENHEIT
  DWPT   - DEWPOINT IN FAHRENHEIT
  RH     - RELATIVE HUMIDITY IN PERCENT
  WIND   - DIRECTION AND SPEED /MPH FOR ISLANDS...KTS FOR BUOYS/
  PRES   - MEAN SEA LEVEL PRESSURE IN INCHES OF HG
  VSB    - VISIBILITY IN MILES
  HX     - HEAT INDEX
  WCI    - WIND CHILL INDEX
  VRB    - VARIABLE WIND DIRECTION
  N/A    - NOT AVAILABLE



USA.gov is the U.S. government's official web portal to all federal, state and local government web resources and services.